Flag for Greenland Weather past 2 weeks in Ittoqqortoormiit, Greenland

Now
43 °F

Sunny.


Feels Like: 43 °F
Forecast: 28 / 44 °F
Wind: 2 mph from Southeast

Location: Scoresbysund

Current Time: Jul 2, 2015 at 9:09:38 AM

Latest Report: Jul 2, 2015 at 7:00 AM


Visibility: 31 mi

Pressure: 30.19 "Hg

Humidity: 68%

Dew point: 33 °F

Location of IttoqqortoormiitLocation

Historic Weather in Ittoqqortoormiit — Graph

°F

Ittoqqortoormiit temperature yesterday

Maximum temperature yesterday: 42 °F (at 8:00 PM)
Minimum temperature yesterday: 34 °F (at 5:00 AM)
Average temperature yesterday: 37 °F

Past Weeks' High & Low Weather Summary

 TemperatureHumidityPressure
High58 °F (Jun 26, 3:00 PM)100% (Jun 19, 2:00 AM)30.26 "Hg (Jun 19, 2:00 AM)
Low29 °F (Jun 22, 2:00 AM)39% (Jun 26, 3:00 PM)29.75 "Hg (Jun 19, 3:00 AM)
Average40 °F77%30.06 "Hg
* Reported Jun 17 9:00 AM — Jul 2 7:00 AM, Ittoqqortoormiit, Weather by CustomWeather, © 2015

Note: Actual official high and low records may vary slightly from our data, if they occured in-between our weather recording intervals... More about our weather records

Advertising

Ittoqqortoormiit weather history for previous 24 hours

 ConditionsComfort  
Time TempWeatherWind HumidityBarometerVisibility
7:00 AM
Thu, Jul 2
43 °FSunny.2 mph68%30.19 "Hg31 mi
6:00 AM43 °FSunny.1 mph67%30.18 "Hg31 mi
5:00 AM42 °FSunny.1 mph69%30.19 "Hg31 mi
4:00 AM39 °FSunny.3 mph76%30.19 "Hg31 mi
3:00 AM40 °FSunny.2 mph76%30.20 "Hg31 mi
2:00 AM39 °FSunny.1 mph78%30.20 "Hg31 mi
1:00 AM40 °FSunny.2 mph76%30.21 "Hg31 mi
12:00 AM40 °FSunny.2 mph75%30.21 "Hg31 mi
11:00 PM
Wed, Jul 1
41 °FSunny.2 mph72%30.20 "Hg31 mi
10:00 PM42 °FSunny.1 mph69%30.20 "Hg31 mi
8:00 PM42 °FSunny.2 mph68%30.19 "Hg31 mi
7:00 PM40 °FSunny.3 mph76%30.19 "Hg31 mi
6:00 PM40 °FSunny.7 mph75%30.18 "Hg31 mi
5:00 PM38 °FPassing clouds.8 mph82%30.17 "Hg31 mi
4:00 PM37 °FLow clouds.8 mph83%30.18 "Hg31 mi
3:00 PM36 °FLow clouds.10 mph84%30.18 "Hg19 mi
2:00 PM37 °FLow clouds.9 mph84%30.17 "Hg22 mi
1:00 PM35 °FLow clouds.8 mph87%30.18 "Hg31 mi
12:00 PM35 °FLow clouds.8 mph94%30.18 "Hg10 mi
11:00 AM35 °FLow clouds.8 mph93%30.18 "Hg15 mi
10:00 AM34 °FLow clouds.7 mph93%30.17 "Hg19 mi
9:00 AM35 °FLow clouds.7 mph91%30.16 "Hg22 mi
Weather by CustomWeather, © 2015

See weather overviewHow to use our weather pages